Time,TemperatureF,DewpointF,PressureIn,WindDirection,WindDirectionDegrees,WindSpeedMPH,WindSpeedGustMPH,Humidity,HourlyPrecipIn,Conditions,Clouds,dailyrainin,SolarRadiationWatts/m^2,SoftwareType,DateUTC
2013-10-02 00:01:00,52.9,48.2,29.89,WNW,297,0.0,0.0,84,0.00,,,0.00,0.0,WUHU216DAVISWMX,2013-10-02 04:01:00,
2013-10-02 00:06:00,52.9,48.2,29.90,WNW,297,0.0,0.0,84,0.00,,,0.00,0.0,WUHU216DAVISWMX,2013-10-02 04:06:00,
2013-10-02 00:11:00,52.9,48.2,29.90,WNW,297,0.0,0.0,84,0.00,,,0.00,0.0,WUHU216DAVISWMX,2013-10-02 04:11:00,
2013-10-02 00:16:00,52.7,48.3,29.90,WNW,297,0.0,0.0,85,0.00,,,0.00,0.0,WUHU216DAVISWMX,2013-10-02 04:16:00,
2013-10-02 00:21:00,52.6,48.2,29.89,WNW,297,0.0,0.0,85,0.00,,,0.00,0.0,WUHU216DAVISWMX,2013-10-02 04:21:00,
2013-10-02 00:26:00,52.4,48.0,29.90,WNW,297,0.0,0.0,85,0.00,,,0.00,0.0,WUHU216DAVISWMX,2013-10-02 04:26:00,
2013-10-02 00:31:00,52.4,48.0,29.90,WNW,297,0.0,0.0,85,0.00,,,0.00,0.0,WUHU216DAVISWMX,2013-10-02 04:31:00,
2013-10-02 00:36:00,52.2,47.5,29.90,WNW,297,0.0,0.0,84,0.00,,,0.00,0.0,WUHU216DAVISWMX,2013-10-02 04:36:00,
2013-10-02 00:41:00,52.1,47.7,29.90,WNW,297,0.0,0.0,85,0.00,,,0.00,0.0,WUHU216DAVISWMX,2013-10-02 04:41:00,
2013-10-02 00:46:00,52.0,47.3,29.90,WNW,297,0.0,0.0,84,0.00,,,0.00,0.0,WUHU216DAVISWMX,2013-10-02 04:46:00,
2013-10-02 00:51:00,52.0,47.6,29.90,WNW,297,0.0,0.0,85,0.00,,,0.00,0.0,WUHU216DAVISWMX,2013-10-02 04:51:00,
2013-10-02 00:56:00,51.9,47.2,29.90,WNW,297,0.0,0.0,84,0.00,,,0.00,0.0,WUHU216DAVISWMX,2013-10-02 04:56:00,
2013-10-02 01:01:00,51.9,47.5,29.90,WNW,297,0.0,0.0,85,0.00,,,0.00,0.0,WUHU216DAVISWMX,2013-10-02 05:01:00,
2013-10-02 01:06:00,51.7,47.3,29.90,WNW,297,0.0,0.0,85,0.00,,,0.00,0.0,WUHU216DAVISWMX,2013-10-02 05:06:00,
2013-10-02 01:11:00,51.6,47.2,29.90,WNW,297,0.0,0.0,85,0.00,,,0.00,0.0,WUHU216DAVISWMX,2013-10-02 05:11:00,
2013-10-02 01:16:00,51.5,46.8,29.90,WNW,297,0.0,0.0,84,0.00,,,0.00,0.0,WUHU216DAVISWMX,2013-10-02 05:16:00,
2013-10-02 01:21:00,51.4,47.0,29.90,WNW,297,0.0,0.0,85,0.00,,,0.00,0.0,WUHU216DAVISWMX,2013-10-02 05:21:00,
2013-10-02 01:26:00,51.3,46.9,29.91,WNW,297,0.0,0.0,85,0.00,,,0.00,0.0,WUHU216DAVISWMX,2013-10-02 05:26:00,
2013-10-02 01:31:00,51.2,46.8,29.90,WNW,297,0.0,0.0,85,0.00,,,0.00,0.0,WUHU216DAVISWMX,2013-10-02 05:31:00,
2013-10-02 01:36:00,51.1,46.7,29.90,WNW,297,0.0,0.0,85,0.00,,,0.00,0.0,WUHU216DAVISWMX,2013-10-02 05:36:00,
2013-10-02 01:41:00,51.0,46.3,29.90,WNW,297,0.0,0.0,84,0.00,,,0.00,0.0,WUHU216DAVISWMX,2013-10-02 05:41:00,
2013-10-02 01:46:00,51.0,46.3,29.91,WNW,297,0.0,0.0,84,0.00,,,0.00,0.0,WUHU216DAVISWMX,2013-10-02 05:46:00,
2013-10-02 01:51:00,50.8,46.1,29.90,WNW,297,0.0,0.0,84,0.00,,,0.00,0.0,WUHU216DAVISWMX,2013-10-02 05:51:00,
2013-10-02 01:56:00,50.8,46.1,29.90,WNW,297,0.0,0.0,84,0.00,,,0.00,0.0,WUHU216DAVISWMX,2013-10-02 05:56:00,
2013-10-02 02:01:00,50.7,46.3,29.90,WNW,297,0.0,0.0,85,0.00,,,0.00,0.0,WUHU216DAVISWMX,2013-10-02 06:01:00,
2013-10-02 02:06:00,50.6,45.9,29.90,WNW,297,0.0,0.0,84,0.00,,,0.00,0.0,WUHU216DAVISWMX,2013-10-02 06:06:00,
2013-10-02 02:11:00,50.4,46.1,29.89,WNW,297,0.0,0.0,85,0.00,,,0.00,0.0,WUHU216DAVISWMX,2013-10-02 06:11:00,
2013-10-02 02:16:00,50.3,46.0,29.89,WNW,297,0.0,0.0,85,0.00,,,0.00,0.0,WUHU216DAVISWMX,2013-10-02 06:16:00,
2013-10-02 02:21:00,50.2,45.9,29.89,WNW,297,0.0,0.0,85,0.00,,,0.00,0.0,WUHU216DAVISWMX,2013-10-02 06:21:00,
2013-10-02 02:26:00,50.2,45.9,29.89,WNW,297,0.0,0.0,85,0.00,,,0.00,0.0,WUHU216DAVISWMX,2013-10-02 06:26:00,
2013-10-02 02:31:00,50.1,45.8,29.89,WNW,297,0.0,0.0,85,0.00,,,0.00,0.0,WUHU216DAVISWMX,2013-10-02 06:31:00,
2013-10-02 02:36:00,50.0,46.0,29.89,WNW,297,0.0,0.0,86,0.00,,,0.00,0.0,WUHU216DAVISWMX,2013-10-02 06:36:00,
2013-10-02 02:41:00,49.9,45.6,29.89,WNW,297,0.0,0.0,85,0.00,,,0.00,0.0,WUHU216DAVISWMX,2013-10-02 06:41:00,
2013-10-02 02:46:00,49.8,45.5,29.89,WNW,297,0.0,0.0,85,0.00,,,0.00,0.0,WUHU216DAVISWMX,2013-10-02 06:46:00,
2013-10-02 02:51:00,49.7,45.4,29.89,WNW,297,0.0,0.0,85,0.00,,,0.00,0.0,WUHU216DAVISWMX,2013-10-02 06:51:00,
2013-10-02 02:56:00,49.6,45.3,29.89,WNW,297,0.0,0.0,85,0.00,,,0.00,0.0,WUHU216DAVISWMX,2013-10-02 06:56:00,
2013-10-02 03:01:00,49.5,45.2,29.89,WNW,297,0.0,0.0,85,0.00,,,0.00,0.0,WUHU216DAVISWMX,2013-10-02 07:01:00,
2013-10-02 03:06:00,49.5,45.2,29.90,WNW,297,0.0,0.0,85,0.00,,,0.00,0.0,WUHU216DAVISWMX,2013-10-02 07:06:00,
2013-10-02 03:11:00,49.5,45.2,29.89,WNW,297,0.0,0.0,85,0.00,,,0.00,0.0,WUHU216DAVISWMX,2013-10-02 07:11:00,
2013-10-02 03:16:00,49.4,45.4,29.89,WNW,297,0.0,0.0,86,0.00,,,0.00,0.0,WUHU216DAVISWMX,2013-10-02 07:16:00,
2013-10-02 03:21:00,49.4,45.1,29.89,WNW,297,0.0,0.0,85,0.00,,,0.00,0.0,WUHU216DAVISWMX,2013-10-02 07:21:00,
2013-10-02 03:26:00,49.3,45.3,29.90,WNW,297,0.0,0.0,86,0.00,,,0.00,0.0,WUHU216DAVISWMX,2013-10-02 07:26:00,
2013-10-02 03:31:00,49.2,45.2,29.89,WNW,297,0.0,0.0,86,0.00,,,0.00,0.0,WUHU216DAVISWMX,2013-10-02 07:31:00,
2013-10-02 03:36:00,49.1,45.1,29.90,WNW,297,0.0,0.0,86,0.00,,,0.00,0.0,WUHU216DAVISWMX,2013-10-02 07:36:00,
2013-10-02 03:41:00,49.0,45.0,29.90,WNW,297,0.0,0.0,86,0.00,,,0.00,0.0,WUHU216DAVISWMX,2013-10-02 07:41:00,
2013-10-02 03:46:00,48.9,44.9,29.90,WNW,297,0.0,0.0,86,0.00,,,0.00,0.0,WUHU216DAVISWMX,2013-10-02 07:46:00,
2013-10-02 03:51:00,49.0,45.0,29.90,WNW,297,0.0,0.0,86,0.00,,,0.00,0.0,WUHU216DAVISWMX,2013-10-02 07:51:00,
2013-10-02 03:56:00,49.0,45.3,29.90,WNW,297,0.0,0.0,87,0.00,,,0.00,0.0,WUHU216DAVISWMX,2013-10-02 07:56:00,
2013-10-02 04:01:00,49.0,45.3,29.90,WNW,297,0.0,0.0,87,0.00,,,0.00,0.0,WUHU216DAVISWMX,2013-10-02 08:01:00,
2013-10-02 04:06:00,48.9,45.2,29.90,WNW,297,0.0,0.0,87,0.00,,,0.00,0.0,WUHU216DAVISWMX,2013-10-02 08:06:00,
2013-10-02 04:11:00,48.7,45.0,29.90,WNW,297,0.0,0.0,87,0.00,,,0.00,0.0,WUHU216DAVISWMX,2013-10-02 08:11:00,
2013-10-02 04:16:00,48.5,45.4,29.90,WNW,297,0.0,0.0,89,0.00,,,0.00,0.0,WUHU216DAVISWMX,2013-10-02 08:16:00,
2013-10-02 04:21:00,48.4,45.0,29.90,WNW,297,0.0,0.0,88,0.00,,,0.00,0.0,WUHU216DAVISWMX,2013-10-02 08:21:00,
2013-10-02 04:26:00,48.3,45.2,29.90,WNW,297,0.0,0.0,89,0.00,,,0.00,0.0,WUHU216DAVISWMX,2013-10-02 08:26:00,
2013-10-02 04:31:00,48.2,44.5,29.90,WNW,297,0.0,0.0,87,0.00,,,0.00,0.0,WUHU216DAVISWMX,2013-10-02 08:31:00,
2013-10-02 04:36:00,48.0,44.3,29.89,WNW,297,0.0,0.0,87,0.00,,,0.00,0.0,WUHU216DAVISWMX,2013-10-02 08:36:00,
2013-10-02 04:41:00,47.9,44.2,29.89,WNW,297,0.0,0.0,87,0.00,,,0.00,0.0,WUHU216DAVISWMX,2013-10-02 08:41:00,
2013-10-02 04:46:00,47.9,44.2,29.90,WNW,297,0.0,0.0,87,0.00,,,0.00,0.0,WUHU216DAVISWMX,2013-10-02 08:46:00,
2013-10-02 04:51:00,47.9,43.9,29.89,WNW,297,0.0,0.0,86,0.00,,,0.00,0.0,WUHU216DAVISWMX,2013-10-02 08:51:00,
2013-10-02 04:56:00,47.8,44.1,29.89,WNW,297,0.0,0.0,87,0.00,,,0.00,0.0,WUHU216DAVISWMX,2013-10-02 08:56:00,
2013-10-02 05:01:00,47.7,44.0,29.89,WNW,297,0.0,0.0,87,0.00,,,0.00,0.0,WUHU216DAVISWMX,2013-10-02 09:01:00,
2013-10-02 05:06:00,47.6,43.9,29.89,WNW,297,0.0,0.0,87,0.00,,,0.00,0.0,WUHU216DAVISWMX,2013-10-02 09:06:00,
2013-10-02 05:11:00,47.5,43.8,29.89,WNW,297,0.0,0.0,87,0.00,,,0.00,0.0,WUHU216DAVISWMX,2013-10-02 09:11:00,
2013-10-02 05:16:00,47.3,43.6,29.89,WNW,297,0.0,0.0,87,0.00,,,0.00,0.0,WUHU216DAVISWMX,2013-10-02 09:16:00,
2013-10-02 05:21:00,47.3,43.6,29.89,WNW,297,0.0,0.0,87,0.00,,,0.00,0.0,WUHU216DAVISWMX,2013-10-02 09:21:00,
2013-10-02 05:26:00,47.1,43.4,29.89,WNW,297,0.0,0.0,87,0.00,,,0.00,0.0,WUHU216DAVISWMX,2013-10-02 09:26:00,
2013-10-02 05:31:00,47.1,43.7,29.89,WNW,297,0.0,0.0,88,0.00,,,0.00,0.0,WUHU216DAVISWMX,2013-10-02 09:31:00,
2013-10-02 05:36:00,47.0,43.3,29.89,WNW,297,0.0,0.0,87,0.00,,,0.00,0.0,WUHU216DAVISWMX,2013-10-02 09:36:00,
2013-10-02 05:41:00,46.8,43.4,29.89,WNW,297,0.0,0.0,88,0.00,,,0.00,0.0,WUHU216DAVISWMX,2013-10-02 09:41:00,
2013-10-02 05:46:00,46.8,43.4,29.89,WNW,298,0.0,0.0,88,0.00,,,0.00,0.0,WUHU216DAVISWMX,2013-10-02 09:46:00,
2013-10-02 05:51:00,46.7,43.3,29.89,WNW,297,0.0,0.0,88,0.00,,,0.00,0.0,WUHU216DAVISWMX,2013-10-02 09:51:00,
2013-10-02 05:56:00,46.6,43.5,29.90,WNW,297,0.0,0.0,89,0.00,,,0.00,0.0,WUHU216DAVISWMX,2013-10-02 09:56:00,
2013-10-02 06:01:00,46.7,43.6,29.89,WNW,297,0.0,0.0,89,0.00,,,0.00,0.0,WUHU216DAVISWMX,2013-10-02 10:01:00,
2013-10-02 06:06:00,46.8,43.7,29.89,WNW,298,0.0,1.0,89,0.00,,,0.00,0.0,WUHU216DAVISWMX,2013-10-02 10:06:00,
2013-10-02 06:11:00,46.8,43.7,29.89,WNW,298,0.0,1.0,89,0.00,,,0.00,0.0,WUHU216DAVISWMX,2013-10-02 10:11:00,
2013-10-02 06:16:00,46.7,43.6,29.89,WNW,297,0.0,0.0,89,0.00,,,0.00,0.0,WUHU216DAVISWMX,2013-10-02 10:16:00,
2013-10-02 06:21:00,46.6,43.5,29.90,WNW,297,0.0,0.0,89,0.00,,,0.00,0.0,WUHU216DAVISWMX,2013-10-02 10:21:00,
2013-10-02 06:26:00,46.5,43.4,29.90,WNW,297,0.0,0.0,89,0.00,,,0.00,0.0,WUHU216DAVISWMX,2013-10-02 10:26:00,
2013-10-02 06:31:00,46.4,43.3,29.90,WNW,297,0.0,0.0,89,0.00,,,0.00,0.0,WUHU216DAVISWMX,2013-10-02 10:31:00,
2013-10-02 06:36:00,46.4,43.3,29.89,WNW,297,0.0,0.0,89,0.00,,,0.00,0.0,WUHU216DAVISWMX,2013-10-02 10:36:00,
2013-10-02 06:41:00,46.4,43.3,29.90,WNW,297,0.0,0.0,89,0.00,,,0.00,0.0,WUHU216DAVISWMX,2013-10-02 10:41:00,
2013-10-02 06:46:00,46.4,43.6,29.89,WNW,297,0.0,0.0,90,0.00,,,0.00,0.0,WUHU216DAVISWMX,2013-10-02 10:46:00,
2013-10-02 06:51:00,46.4,43.6,29.90,WNW,297,0.0,0.0,90,0.00,,,0.00,0.0,WUHU216DAVISWMX,2013-10-02 10:51:00,
2013-10-02 06:56:00,46.3,43.2,29.90,WNW,297,0.0,0.0,89,0.00,,,0.00,0.0,WUHU216DAVISWMX,2013-10-02 10:56:00,
2013-10-02 07:01:00,46.4,43.3,29.90,WNW,297,0.0,0.0,89,0.00,,,0.00,0.0,WUHU216DAVISWMX,2013-10-02 11:01:00,
2013-10-02 07:06:00,46.4,43.6,29.90,WNW,297,0.0,0.0,90,0.00,,,0.00,0.0,WUHU216DAVISWMX,2013-10-02 11:06:00,
2013-10-02 07:11:00,46.4,43.3,29.90,WNW,297,0.0,0.0,89,0.00,,,0.00,0.0,WUHU216DAVISWMX,2013-10-02 11:11:00,
2013-10-02 07:16:00,46.5,43.4,29.90,WNW,297,0.0,0.0,89,0.00,,,0.00,0.0,WUHU216DAVISWMX,2013-10-02 11:16:00,
2013-10-02 07:21:00,46.6,43.8,29.90,WNW,297,0.0,0.0,90,0.00,,,0.00,0.0,WUHU216DAVISWMX,2013-10-02 11:21:00,
2013-10-02 07:26:00,46.8,43.7,29.90,WNW,298,0.0,0.0,89,0.00,,,0.00,0.0,WUHU216DAVISWMX,2013-10-02 11:26:00,
2013-10-02 07:31:00,47.1,44.3,29.90,WNW,297,0.0,0.0,90,0.00,,,0.00,0.0,WUHU216DAVISWMX,2013-10-02 11:31:00,
2013-10-02 07:36:00,47.4,44.6,29.91,WNW,297,0.0,0.0,90,0.00,,,0.00,0.0,WUHU216DAVISWMX,2013-10-02 11:36:00,
2013-10-02 07:41:00,47.8,45.0,29.91,WNW,297,0.0,0.0,90,0.00,,,0.00,0.0,WUHU216DAVISWMX,2013-10-02 11:41:00,
2013-10-02 07:46:00,48.1,45.3,29.91,WNW,297,0.0,0.0,90,0.00,,,0.00,0.0,WUHU216DAVISWMX,2013-10-02 11:46:00,
2013-10-02 07:51:00,48.4,45.6,29.90,WNW,297,0.0,0.0,90,0.00,,,0.00,0.0,WUHU216DAVISWMX,2013-10-02 11:51:00,
2013-10-02 07:56:00,48.7,45.9,29.90,WNW,298,0.0,1.0,90,0.00,,,0.00,0.0,WUHU216DAVISWMX,2013-10-02 11:56:00,
2013-10-02 08:01:00,49.2,46.6,29.91,WNW,297,0.0,1.0,91,0.00,,,0.00,0.0,WUHU216DAVISWMX,2013-10-02 12:01:00,
2013-10-02 08:06:00,50.1,47.5,29.90,WNW,297,0.0,0.0,91,0.00,,,0.00,0.0,WUHU216DAVISWMX,2013-10-02 12:06:00,
2013-10-02 08:11:00,50.9,48.3,29.90,WNW,297,0.0,0.0,91,0.00,,,0.00,0.0,WUHU216DAVISWMX,2013-10-02 12:11:00,
2013-10-02 08:16:00,51.3,48.7,29.90,WNW,297,0.0,0.0,91,0.00,,,0.00,0.0,WUHU216DAVISWMX,2013-10-02 12:16:00,
2013-10-02 08:21:00,51.5,48.9,29.90,WNW,298,0.0,1.0,91,0.00,,,0.00,0.0,WUHU216DAVISWMX,2013-10-02 12:21:00,
2013-10-02 08:26:00,51.7,49.4,29.90,WNW,297,0.0,1.0,92,0.00,,,0.00,0.0,WUHU216DAVISWMX,2013-10-02 12:26:00,
2013-10-02 08:31:00,52.0,49.7,29.90,WNW,297,0.0,0.0,92,0.00,,,0.00,0.0,WUHU216DAVISWMX,2013-10-02 12:31:00,
2013-10-02 08:36:00,53.0,50.4,29.90,WNW,297,0.0,0.0,91,0.00,,,0.00,0.0,WUHU216DAVISWMX,2013-10-02 12:36:00,
2013-10-02 08:41:00,53.7,51.7,29.90,WNW,297,0.0,0.0,93,0.00,,,0.00,0.0,WUHU216DAVISWMX,2013-10-02 12:41:00,
2013-10-02 08:46:00,54.8,52.8,29.90,WNW,297,0.0,0.0,93,0.00,,,0.00,0.0,WUHU216DAVISWMX,2013-10-02 12:46:00,
2013-10-02 08:51:00,55.9,53.9,29.90,WNW,297,0.0,1.0,93,0.00,,,0.00,0.0,WUHU216DAVISWMX,2013-10-02 12:51:00,
2013-10-02 08:56:00,56.6,55.1,29.90,WNW,297,0.0,1.0,95,0.00,,,0.00,0.0,WUHU216DAVISWMX,2013-10-02 12:56:00,
2013-10-02 09:01:00,57.5,56.6,29.90,WNW,297,0.0,1.0,97,0.00,,,0.00,0.0,WUHU216DAVISWMX,2013-10-02 13:01:00,
2013-10-02 09:06:00,58.4,57.2,29.90,WNW,297,0.0,1.0,96,0.00,,,0.00,0.0,WUHU216DAVISWMX,2013-10-02 13:06:00,
2013-10-02 09:11:00,59.6,58.1,29.91,WNW,297,0.0,1.0,95,0.00,,,0.00,0.0,WUHU216DAVISWMX,2013-10-02 13:11:00,
2013-10-02 09:16:00,61.0,59.2,29.90,WNW,297,0.0,1.0,94,0.00,,,0.00,0.0,WUHU216DAVISWMX,2013-10-02 13:16:00,
2013-10-02 09:21:00,62.1,58.8,29.90,SSW,211,2.0,4.0,89,0.00,,,0.00,0.0,WUHU216DAVISWMX,2013-10-02 13:21:00,
2013-10-02 09:26:00,63.1,58.8,29.90,SSW,211,0.0,4.0,86,0.00,,,0.00,0.0,WUHU216DAVISWMX,2013-10-02 13:26:00,
2013-10-02 09:31:00,63.9,59.3,29.90,SSW,209,0.0,2.0,85,0.00,,,0.00,0.0,WUHU216DAVISWMX,2013-10-02 13:31:00,
2013-10-02 09:36:00,64.5,59.3,29.90,South,188,0.0,4.0,83,0.00,,,0.00,0.0,WUHU216DAVISWMX,2013-10-02 13:36:00,
2013-10-02 09:41:00,65.3,59.0,29.89,South,186,0.0,4.0,80,0.00,,,0.00,0.0,WUHU216DAVISWMX,2013-10-02 13:41:00,
2013-10-02 09:46:00,65.9,57.9,29.90,South,187,0.0,3.0,75,0.00,,,0.00,0.0,WUHU216DAVISWMX,2013-10-02 13:46:00,
2013-10-02 09:51:00,66.6,58.9,29.89,South,189,0.0,3.0,76,0.00,,,0.00,0.0,WUHU216DAVISWMX,2013-10-02 13:51:00,
2013-10-02 09:56:00,67.5,58.7,29.89,South,188,0.0,3.0,73,0.00,,,0.00,0.0,WUHU216DAVISWMX,2013-10-02 13:56:00,
2013-10-02 10:01:00,68.2,57.8,29.90,South,179,1.0,3.0,69,0.00,,,0.00,0.0,WUHU216DAVISWMX,2013-10-02 14:01:00,
2013-10-02 10:06:00,68.7,57.9,29.89,SSE,158,0.0,3.0,68,0.00,,,0.00,0.0,WUHU216DAVISWMX,2013-10-02 14:06:00,
2013-10-02 10:11:00,69.0,57.4,29.89,SSE,159,0.0,3.0,66,0.00,,,0.00,0.0,WUHU216DAVISWMX,2013-10-02 14:11:00,
2013-10-02 10:16:00,69.3,60.4,29.90,SSE,160,0.0,3.0,73,0.00,,,0.00,0.0,WUHU216DAVISWMX,2013-10-02 14:16:00,
2013-10-02 10:21:00,69.6,58.3,29.89,South,180,0.0,4.0,67,0.00,,,0.00,0.0,WUHU216DAVISWMX,2013-10-02 14:21:00,
2013-10-02 10:26:00,69.9,57.8,29.90,South,180,1.0,4.0,65,0.00,,,0.00,0.0,WUHU216DAVISWMX,2013-10-02 14:26:00,
2013-10-02 10:31:00,70.1,57.5,29.89,NW,307,0.0,5.0,64,0.00,,,0.00,0.0,WUHU216DAVISWMX,2013-10-02 14:31:00,
2013-10-02 10:36:00,70.5,57.9,29.89,WNW,291,3.0,6.0,64,0.00,,,0.00,0.0,WUHU216DAVISWMX,2013-10-02 14:36:00,
2013-10-02 10:41:00,70.6,57.1,29.89,West,281,5.0,8.0,62,0.00,,,0.00,0.0,WUHU216DAVISWMX,2013-10-02 14:41:00,
2013-10-02 10:46:00,70.7,57.7,29.89,NW,315,3.0,8.0,63,0.00,,,0.00,0.0,WUHU216DAVISWMX,2013-10-02 14:46:00,
2013-10-02 10:51:00,70.8,57.8,29.89,NW,314,1.0,8.0,63,0.00,,,0.00,0.0,WUHU216DAVISWMX,2013-10-02 14:51:00,
2013-10-02 10:56:00,71.2,57.3,29.88,NW,308,0.0,8.0,61,0.00,,,0.00,0.0,WUHU216DAVISWMX,2013-10-02 14:56:00,
2013-10-02 11:01:00,71.7,57.7,29.88,North,350,2.0,8.0,61,0.00,,,0.00,0.0,WUHU216DAVISWMX,2013-10-02 15:01:00,
2013-10-02 11:06:00,72.1,57.2,29.88,NW,305,2.0,12.0,59,0.00,,,0.00,0.0,WUHU216DAVISWMX,2013-10-02 15:06:00,
2013-10-02 11:11:00,72.4,57.9,29.87,NW,312,1.0,12.0,60,0.00,,,0.00,0.0,WUHU216DAVISWMX,2013-10-02 15:11:00,
2013-10-02 11:16:00,72.9,56.9,29.87,NW,315,2.0,9.0,57,0.00,,,0.00,0.0,WUHU216DAVISWMX,2013-10-02 15:16:00,
2013-10-02 11:21:00,73.1,56.1,29.87,WNW,283,0.0,9.0,55,0.00,,,0.00,0.0,WUHU216DAVISWMX,2013-10-02 15:21:00,
2013-10-02 11:26:00,73.2,56.2,29.87,WNW,303,0.0,9.0,55,0.00,,,0.00,0.0,WUHU216DAVISWMX,2013-10-02 15:26:00,
2013-10-02 11:31:00,73.6,56.6,29.87,WNW,289,3.0,9.0,55,0.00,,,0.00,0.0,WUHU216DAVISWMX,2013-10-02 15:31:00,
2013-10-02 11:33:00,73.8,56.8,29.87,WNW,292,0.0,9.0,55,0.00,,,0.00,0.0,WUHU216DAVISWMX,2013-10-02 15:33:00,
2013-10-02 11:38:00,74.0,55.9,29.87,WNW,302,2.0,10.0,53,0.00,,,0.00,0.0,WUHU216DAVISWMX,2013-10-02 15:38:00,
2013-10-02 11:43:00,73.7,55.6,29.87,NW,308,1.0,16.0,53,0.00,,,0.00,0.0,WUHU216DAVISWMX,2013-10-02 15:43:00,
2013-10-02 11:48:00,73.7,56.2,29.87,NW,316,7.0,16.0,54,0.00,,,0.00,0.0,WUHU216DAVISWMX,2013-10-02 15:48:00,
2013-10-02 11:53:00,73.6,55.5,29.87,NW,310,5.0,11.0,53,0.00,,,0.00,0.0,WUHU216DAVISWMX,2013-10-02 15:53:00,
2013-10-02 11:58:00,73.7,55.6,29.87,West,275,1.0,11.0,53,0.00,,,0.00,0.0,WUHU216DAVISWMX,2013-10-02 15:58:00,
2013-10-02 12:03:00,74.0,55.9,29.87,WNW,289,4.0,9.0,53,0.00,,,0.00,0.0,WUHU216DAVISWMX,2013-10-02 16:03:00,
2013-10-02 12:08:00,74.2,56.1,29.87,West,271,6.0,9.0,53,0.00,,,0.00,0.0,WUHU216DAVISWMX,2013-10-02 16:08:00,
2013-10-02 12:13:00,74.5,56.9,29.87,NW,306,4.0,9.0,54,0.00,,,0.00,0.0,WUHU216DAVISWMX,2013-10-02 16:13:00,
2013-10-02 12:18:00,74.9,56.2,29.87,WSW,256,4.0,11.0,52,0.00,,,0.00,0.0,WUHU216DAVISWMX,2013-10-02 16:18:00,
2013-10-02 12:23:00,75.0,56.3,29.87,NW,305,2.0,11.0,52,0.00,,,0.00,0.0,WUHU216DAVISWMX,2013-10-02 16:23:00,
2013-10-02 12:28:00,75.2,56.5,29.87,NW,304,4.0,10.0,52,0.00,,,0.00,0.0,WUHU216DAVISWMX,2013-10-02 16:28:00,
2013-10-02 12:33:00,75.4,56.7,29.87,NW,320,7.0,10.0,52,0.00,,,0.00,0.0,WUHU216DAVISWMX,2013-10-02 16:33:00,
2013-10-02 12:38:00,75.7,57.5,29.87,WNW,302,1.0,10.0,53,0.00,,,0.00,0.0,WUHU216DAVISWMX,2013-10-02 16:38:00,
2013-10-02 12:43:00,75.9,57.1,29.87,NNW,338,7.0,10.0,52,0.00,,,0.00,0.0,WUHU216DAVISWMX,2013-10-02 16:43:00,
2013-10-02 12:48:00,76.1,55.6,29.87,NW,315,1.0,10.0,49,0.00,,,0.00,0.0,WUHU216DAVISWMX,2013-10-02 16:48:00,
2013-10-02 12:53:00,76.4,55.3,29.86,NW,324,4.0,10.0,48,0.00,,,0.00,0.0,WUHU216DAVISWMX,2013-10-02 16:53:00,
2013-10-02 12:58:00,76.3,55.2,29.86,NW,307,1.0,16.0,48,0.00,,,0.00,0.0,WUHU216DAVISWMX,2013-10-02 16:58:00,
2013-10-02 13:03:00,76.4,55.3,29.86,NW,322,2.0,16.0,48,0.00,,,0.00,0.0,WUHU216DAVISWMX,2013-10-02 17:03:00,
2013-10-02 13:08:00,76.6,56.1,29.86,WSW,257,1.0,14.0,49,0.00,,,0.00,0.0,WUHU216DAVISWMX,2013-10-02 17:08:00,
2013-10-02 13:13:00,76.5,55.4,29.86,NW,319,1.0,14.0,48,0.00,,,0.00,0.0,WUHU216DAVISWMX,2013-10-02 17:13:00,
2013-10-02 13:18:00,76.5,56.0,29.86,NW,305,7.0,14.0,49,0.00,,,0.00,0.0,WUHU216DAVISWMX,2013-10-02 17:18:00,
2013-10-02 13:23:00,76.8,56.3,29.86,WNW,292,6.0,12.0,49,0.00,,,0.00,0.0,WUHU216DAVISWMX,2013-10-02 17:23:00,
2013-10-02 13:28:00,76.7,55.6,29.86,NW,316,6.0,12.0,48,0.00,,,0.00,0.0,WUHU216DAVISWMX,2013-10-02 17:28:00,
2013-10-02 13:33:00,76.7,56.2,29.86,NW,323,2.0,14.0,49,0.00,,,0.00,0.0,WUHU216DAVISWMX,2013-10-02 17:33:00,
2013-10-02 13:38:00,76.7,55.6,29.86,West,278,2.0,16.0,48,0.00,,,0.00,0.0,WUHU216DAVISWMX,2013-10-02 17:38:00,
2013-10-02 13:43:00,76.8,56.3,29.85,WNW,288,4.0,16.0,49,0.00,,,0.00,0.0,WUHU216DAVISWMX,2013-10-02 17:43:00,
2013-10-02 13:48:00,76.7,55.6,29.85,NW,309,6.0,14.0,48,0.00,,,0.00,0.0,WUHU216DAVISWMX,2013-10-02 17:48:00,
2013-10-02 13:53:00,76.6,55.5,29.85,WNW,303,5.0,14.0,48,0.00,,,0.00,0.0,WUHU216DAVISWMX,2013-10-02 17:53:00,
2013-10-02 13:58:00,76.6,55.5,29.85,West,259,6.0,13.0,48,0.00,,,0.00,0.0,WUHU216DAVISWMX,2013-10-02 17:58:00,
2013-10-02 14:03:00,76.6,56.1,29.85,West,267,3.0,12.0,49,0.00,,,0.00,0.0,WUHU216DAVISWMX,2013-10-02 18:03:00,
2013-10-02 14:08:00,77.0,55.9,29.85,WNW,301,6.0,10.0,48,0.00,,,0.00,0.0,WUHU216DAVISWMX,2013-10-02 18:08:00,
2013-10-02 14:13:00,76.9,55.2,29.85,NW,319,2.0,10.0,47,0.00,,,0.00,0.0,WUHU216DAVISWMX,2013-10-02 18:13:00,
2013-10-02 14:18:00,77.1,56.0,29.85,NW,305,3.0,10.0,48,0.00,,,0.00,0.0,WUHU216DAVISWMX,2013-10-02 18:18:00,
2013-10-02 14:23:00,77.1,55.4,29.85,NW,322,2.0,10.0,47,0.00,,,0.00,0.0,WUHU216DAVISWMX,2013-10-02 18:23:00,
2013-10-02 14:28:00,77.2,55.4,29.85,NNW,330,2.0,10.0,47,0.00,,,0.00,0.0,WUHU216DAVISWMX,2013-10-02 18:28:00,
2013-10-02 14:33:00,77.4,55.6,29.84,NW,312,4.0,9.0,47,0.00,,,0.00,0.0,WUHU216DAVISWMX,2013-10-02 18:33:00,
2013-10-02 14:38:00,77.6,55.8,29.85,NNW,347,0.0,9.0,47,0.00,,,0.00,0.0,WUHU216DAVISWMX,2013-10-02 18:38:00,
2013-10-02 14:43:00,78.0,56.2,29.84,South,172,1.0,9.0,47,0.00,,,0.00,0.0,WUHU216DAVISWMX,2013-10-02 18:43:00,
2013-10-02 14:48:00,78.4,55.9,29.84,NNW,338,2.0,8.0,46,0.00,,,0.00,0.0,WUHU216DAVISWMX,2013-10-02 18:48:00,
2013-10-02 14:53:00,78.3,55.2,29.84,NW,305,4.0,12.0,45,0.00,,,0.00,0.0,WUHU216DAVISWMX,2013-10-02 18:53:00,
2013-10-02 14:58:00,78.1,55.7,29.84,WNW,293,10.0,13.0,46,0.00,,,0.00,0.0,WUHU216DAVISWMX,2013-10-02 18:58:00,
2013-10-02 15:03:00,78.0,55.6,29.84,NW,304,9.0,13.0,46,0.00,,,0.00,0.0,WUHU216DAVISWMX,2013-10-02 19:03:00,
2013-10-02 15:08:00,78.0,56.2,29.84,WNW,302,6.0,13.0,47,0.00,,,0.00,0.0,WUHU216DAVISWMX,2013-10-02 19:08:00,
2013-10-02 15:13:00,78.2,55.8,29.84,NW,310,5.0,10.0,46,0.00,,,0.00,0.0,WUHU216DAVISWMX,2013-10-02 19:13:00,
2013-10-02 15:18:00,78.2,56.4,29.84,NW,305,4.0,13.0,47,0.00,,,0.00,0.0,WUHU216DAVISWMX,2013-10-02 19:18:00,
2013-10-02 15:23:00,78.3,56.5,29.84,West,278,2.0,13.0,47,0.00,,,0.00,0.0,WUHU216DAVISWMX,2013-10-02 19:23:00,
2013-10-02 15:28:00,78.4,55.9,29.84,NW,312,4.0,13.0,46,0.00,,,0.00,0.0,WUHU216DAVISWMX,2013-10-02 19:28:00,
2013-10-02 15:33:00,78.5,56.0,29.84,NW,309,8.0,8.0,46,0.00,,,0.00,0.0,WUHU216DAVISWMX,2013-10-02 19:33:00,
2013-10-02 15:38:00,78.4,54.7,29.84,NW,313,6.0,9.0,44,0.00,,,0.00,0.0,WUHU216DAVISWMX,2013-10-02 19:38:00,
2013-10-02 15:43:00,78.1,55.0,29.84,WNW,290,2.0,10.0,45,0.00,,,0.00,0.0,WUHU216DAVISWMX,2013-10-02 19:43:00,
2013-10-02 15:48:00,77.6,53.9,29.84,NW,305,8.0,13.0,44,0.00,,,0.00,0.0,WUHU216DAVISWMX,2013-10-02 19:48:00,
2013-10-02 15:53:00,77.3,54.3,29.84,NW,304,5.0,13.0,45,0.00,,,0.00,0.0,WUHU216DAVISWMX,2013-10-02 19:53:00,
2013-10-02 15:58:00,77.2,54.2,29.84,NW,319,3.0,11.0,45,0.00,,,0.00,0.0,WUHU216DAVISWMX,2013-10-02 19:58:00,
2013-10-02 16:03:00,77.0,54.0,29.84,NW,306,5.0,11.0,45,0.00,,,0.00,0.0,WUHU216DAVISWMX,2013-10-02 20:03:00,
2013-10-02 16:08:00,76.7,54.4,29.84,WNW,298,0.0,10.0,46,0.00,,,0.00,0.0,WUHU216DAVISWMX,2013-10-02 20:08:00,
2013-10-02 16:13:00,76.5,54.2,29.84,WNW,297,5.0,12.0,46,0.00,,,0.00,0.0,WUHU216DAVISWMX,2013-10-02 20:13:00,
2013-10-02 16:18:00,76.4,54.1,29.84,NW,305,4.0,12.0,46,0.00,,,0.00,0.0,WUHU216DAVISWMX,2013-10-02 20:18:00,
2013-10-02 16:23:00,76.4,54.1,29.84,WNW,300,4.0,11.0,46,0.00,,,0.00,0.0,WUHU216DAVISWMX,2013-10-02 20:23:00,
2013-10-02 16:28:00,76.5,54.2,29.84,WNW,303,12.0,12.0,46,0.00,,,0.00,0.0,WUHU216DAVISWMX,2013-10-02 20:28:00,
2013-10-02 16:33:00,76.5,54.2,29.84,NW,325,5.0,12.0,46,0.00,,,0.00,0.0,WUHU216DAVISWMX,2013-10-02 20:33:00,
2013-10-02 16:38:00,76.5,54.2,29.84,South,175,3.0,11.0,46,0.00,,,0.00,0.0,WUHU216DAVISWMX,2013-10-02 20:38:00,
2013-10-02 16:43:00,76.4,54.1,29.84,NW,310,1.0,10.0,46,0.00,,,0.00,0.0,WUHU216DAVISWMX,2013-10-02 20:43:00,
2013-10-02 16:48:00,76.2,53.9,29.85,NNW,333,5.0,11.0,46,0.00,,,0.00,0.0,WUHU216DAVISWMX,2013-10-02 20:48:00,
2013-10-02 16:53:00,76.1,53.8,29.85,NW,313,4.0,11.0,46,0.00,,,0.00,0.0,WUHU216DAVISWMX,2013-10-02 20:53:00,
2013-10-02 16:58:00,76.0,53.7,29.85,WNW,301,3.0,11.0,46,0.00,,,0.00,0.0,WUHU216DAVISWMX,2013-10-02 20:58:00,
2013-10-02 17:03:00,75.8,53.6,29.85,NW,315,4.0,8.0,46,0.00,,,0.00,0.0,WUHU216DAVISWMX,2013-10-02 21:03:00,
2013-10-02 17:08:00,75.6,54.0,29.85,NW,307,3.0,11.0,47,0.00,,,0.00,0.0,WUHU216DAVISWMX,2013-10-02 21:08:00,
2013-10-02 17:13:00,75.5,53.9,29.85,WNW,295,4.0,11.0,47,0.00,,,0.00,0.0,WUHU216DAVISWMX,2013-10-02 21:13:00,
2013-10-02 17:18:00,75.4,54.4,29.85,NW,308,2.0,7.0,48,0.00,,,0.00,0.0,WUHU216DAVISWMX,2013-10-02 21:18:00,
2013-10-02 17:23:00,75.3,54.3,29.85,NW,314,3.0,9.0,48,0.00,,,0.00,0.0,WUHU216DAVISWMX,2013-10-02 21:23:00,
2013-10-02 17:28:00,75.2,54.8,29.85,West,277,2.0,9.0,49,0.00,,,0.00,0.0,WUHU216DAVISWMX,2013-10-02 21:28:00,
2013-10-02 17:33:00,75.1,55.3,29.85,WNW,293,5.0,8.0,50,0.00,,,0.00,0.0,WUHU216DAVISWMX,2013-10-02 21:33:00,
2013-10-02 17:38:00,74.8,55.0,29.85,WNW,284,0.0,7.0,50,0.00,,,0.00,0.0,WUHU216DAVISWMX,2013-10-02 21:38:00,
2013-10-02 17:43:00,74.6,54.8,29.86,WNW,296,2.0,5.0,50,0.00,,,0.00,0.0,WUHU216DAVISWMX,2013-10-02 21:43:00,
2013-10-02 17:48:00,74.4,55.2,29.86,WSW,257,8.0,8.0,51,0.00,,,0.00,0.0,WUHU216DAVISWMX,2013-10-02 21:48:00,
2013-10-02 17:53:00,74.3,55.6,29.86,WNW,290,0.0,8.0,52,0.00,,,0.00,0.0,WUHU216DAVISWMX,2013-10-02 21:53:00,
2013-10-02 17:58:00,74.0,55.9,29.86,WSW,254,0.0,7.0,53,0.00,,,0.00,0.0,WUHU216DAVISWMX,2013-10-02 21:58:00,
2013-10-02 18:03:00,73.7,56.2,29.86,NW,312,0.0,6.0,54,0.00,,,0.00,0.0,WUHU216DAVISWMX,2013-10-02 22:03:00,
2013-10-02 18:08:00,73.2,56.2,29.87,NW,315,0.0,6.0,55,0.00,,,0.00,0.0,WUHU216DAVISWMX,2013-10-02 22:08:00,
2013-10-02 18:13:00,72.9,57.9,29.86,NW,315,0.0,6.0,59,0.00,,,0.00,0.0,WUHU216DAVISWMX,2013-10-02 22:13:00,
2013-10-02 18:18:00,72.4,57.9,29.86,NW,315,0.0,1.0,60,0.00,,,0.00,0.0,WUHU216DAVISWMX,2013-10-02 22:18:00,
2013-10-02 18:23:00,72.2,58.2,29.87,NW,315,0.0,1.0,61,0.00,,,0.00,0.0,WUHU216DAVISWMX,2013-10-02 22:23:00,
2013-10-02 18:28:00,71.8,58.3,29.87,NW,315,0.0,1.0,62,0.00,,,0.00,0.0,WUHU216DAVISWMX,2013-10-02 22:28:00,
2013-10-02 18:33:00,71.5,58.9,29.87,NW,315,0.0,0.0,64,0.00,,,0.00,0.0,WUHU216DAVISWMX,2013-10-02 22:33:00,
2013-10-02 18:38:00,71.0,56.6,29.88,NW,315,0.0,0.0,60,0.00,,,0.00,0.0,WUHU216DAVISWMX,2013-10-02 22:38:00,
2013-10-02 18:43:00,70.6,56.7,29.87,NW,315,0.0,0.0,61,0.00,,,0.00,0.0,WUHU216DAVISWMX,2013-10-02 22:43:00,
2013-10-02 18:48:00,70.3,55.9,29.87,NW,315,0.0,0.0,60,0.00,,,0.00,0.0,WUHU216DAVISWMX,2013-10-02 22:48:00,
2013-10-02 18:53:00,70.0,56.1,29.87,NW,315,0.0,0.0,61,0.00,,,0.00,0.0,WUHU216DAVISWMX,2013-10-02 22:53:00,
2013-10-02 18:58:00,69.6,56.6,29.88,NW,315,0.0,0.0,63,0.00,,,0.00,0.0,WUHU216DAVISWMX,2013-10-02 22:58:00,
2013-10-02 19:03:00,69.2,57.5,29.88,NW,315,0.0,0.0,66,0.00,,,0.00,0.0,WUHU216DAVISWMX,2013-10-02 23:03:00,
2013-10-02 19:08:00,68.8,57.6,29.88,NW,316,0.0,0.0,67,0.00,,,0.00,0.0,WUHU216DAVISWMX,2013-10-02 23:08:00,
2013-10-02 19:13:00,68.5,57.7,29.88,NW,315,0.0,0.0,68,0.00,,,0.00,0.0,WUHU216DAVISWMX,2013-10-02 23:13:00,
2013-10-02 19:18:00,68.2,58.2,29.88,NW,315,0.0,0.0,70,0.00,,,0.00,0.0,WUHU216DAVISWMX,2013-10-02 23:18:00,
2013-10-02 19:23:00,67.9,58.3,29.88,NW,315,0.0,0.0,71,0.00,,,0.00,0.0,WUHU216DAVISWMX,2013-10-02 23:23:00,
2013-10-02 19:28:00,67.6,58.0,29.89,NW,315,0.0,0.0,71,0.00,,,0.00,0.0,WUHU216DAVISWMX,2013-10-02 23:28:00,
2013-10-02 19:33:00,67.3,58.9,29.89,NW,316,0.0,0.0,74,0.00,,,0.00,0.0,WUHU216DAVISWMX,2013-10-02 23:33:00,
2013-10-02 19:38:00,67.0,58.9,29.89,NW,315,0.0,0.0,75,0.00,,,0.00,0.0,WUHU216DAVISWMX,2013-10-02 23:38:00,
2013-10-02 19:43:00,66.8,58.7,29.89,NW,315,0.0,0.0,75,0.00,,,0.00,0.0,WUHU216DAVISWMX,2013-10-02 23:43:00,
2013-10-02 19:48:00,66.5,58.1,29.89,NW,315,0.0,0.0,74,0.00,,,0.00,0.0,WUHU216DAVISWMX,2013-10-02 23:48:00,
2013-10-02 19:50:00,66.5,59.2,29.90,NW,315,0.0,0.0,77,0.00,,,0.00,0.0,WUHU216DAVISWMX,2013-10-02 23:50:00,
2013-10-02 19:55:00,66.1,59.1,29.90,NW,315,1.0,1.0,78,0.00,,,0.00,0.0,WUHU216DAVISWMX,2013-10-02 23:55:00,
2013-10-02 20:00:00,65.8,58.1,29.90,NW,315,0.0,1.0,76,0.00,,,0.00,0.0,WUHU216DAVISWMX,2013-10-03 00:00:00,
2013-10-02 20:05:00,65.5,57.5,29.90,NW,315,0.0,0.0,75,0.00,,,0.00,0.0,WUHU216DAVISWMX,2013-10-03 00:05:00,
2013-10-02 20:10:00,65.3,59.0,29.90,NW,315,0.0,0.0,80,0.00,,,0.00,0.0,WUHU216DAVISWMX,2013-10-03 00:10:00,
2013-10-02 20:15:00,65.1,58.8,29.90,NW,315,0.0,0.0,80,0.00,,,0.00,0.0,WUHU216DAVISWMX,2013-10-03 00:15:00,
2013-10-02 20:20:00,64.8,58.6,29.90,NW,315,0.0,0.0,80,0.00,,,0.00,0.0,WUHU216DAVISWMX,2013-10-03 00:20:00,
2013-10-02 20:25:00,64.6,57.7,29.90,NW,315,0.0,0.0,78,0.00,,,0.00,0.0,WUHU216DAVISWMX,2013-10-03 00:25:00,
2013-10-02 20:30:00,64.4,57.1,29.90,NW,315,0.0,0.0,77,0.00,,,0.00,0.0,WUHU216DAVISWMX,2013-10-03 00:30:00,
2013-10-02 20:35:00,64.2,57.3,29.90,NW,315,0.0,0.0,78,0.00,,,0.00,0.0,WUHU216DAVISWMX,2013-10-03 00:35:00,
2013-10-02 20:40:00,63.9,57.3,29.90,NW,315,0.0,0.0,79,0.00,,,0.00,0.0,WUHU216DAVISWMX,2013-10-03 00:40:00,
2013-10-02 20:45:00,63.7,57.1,29.91,NW,315,0.0,0.0,79,0.00,,,0.00,0.0,WUHU216DAVISWMX,2013-10-03 00:45:00,
2013-10-02 20:50:00,63.5,57.6,29.91,NW,315,0.0,0.0,81,0.00,,,0.00,0.0,WUHU216DAVISWMX,2013-10-03 00:50:00,
2013-10-02 20:55:00,63.3,57.1,29.91,NW,315,0.0,0.0,80,0.00,,,0.00,0.0,WUHU216DAVISWMX,2013-10-03 00:55:00,
2013-10-02 21:00:00,63.1,56.9,29.91,NW,315,0.0,0.0,80,0.00,,,0.00,0.0,WUHU216DAVISWMX,2013-10-03 01:00:00,
2013-10-02 21:05:00,62.8,56.3,29.91,NW,315,0.0,0.0,79,0.00,,,0.00,0.0,WUHU216DAVISWMX,2013-10-03 01:05:00,
2013-10-02 21:10:00,62.6,56.4,29.91,NW,315,0.0,0.0,80,0.00,,,0.00,0.0,WUHU216DAVISWMX,2013-10-03 01:10:00,
2013-10-02 21:15:00,62.5,56.6,29.91,NW,316,0.0,0.0,81,0.00,,,0.00,0.0,WUHU216DAVISWMX,2013-10-03 01:15:00,
2013-10-02 21:20:00,62.6,56.4,29.91,NW,315,0.0,0.0,80,0.00,,,0.00,0.0,WUHU216DAVISWMX,2013-10-03 01:20:00,
2013-10-02 21:25:00,62.6,56.4,29.91,NW,315,0.0,0.0,80,0.00,,,0.00,0.0,WUHU216DAVISWMX,2013-10-03 01:25:00,
2013-10-02 21:30:00,62.6,56.4,29.92,NW,316,0.0,0.0,80,0.00,,,0.00,0.0,WUHU216DAVISWMX,2013-10-03 01:30:00,
2013-10-02 21:35:00,62.6,56.4,29.92,NW,315,0.0,0.0,80,0.00,,,0.00,0.0,WUHU216DAVISWMX,2013-10-03 01:35:00,
2013-10-02 21:40:00,62.7,56.5,29.92,NW,315,0.0,1.0,80,0.00,,,0.00,0.0,WUHU216DAVISWMX,2013-10-03 01:40:00,
2013-10-02 21:45:00,62.8,56.3,29.92,NW,315,0.0,1.0,79,0.00,,,0.00,0.0,WUHU216DAVISWMX,2013-10-03 01:45:00,
2013-10-02 21:50:00,63.1,56.6,29.92,NW,315,0.0,1.0,79,0.00,,,0.00,0.0,WUHU216DAVISWMX,2013-10-03 01:50:00,
2013-10-02 21:55:00,63.1,56.6,29.92,NW,315,0.0,1.0,79,0.00,,,0.00,0.0,WUHU216DAVISWMX,2013-10-03 01:55:00,
2013-10-02 22:00:00,62.8,56.3,29.93,NW,315,0.0,0.0,79,0.00,,,0.00,0.0,WUHU216DAVISWMX,2013-10-03 02:00:00,
2013-10-02 22:05:00,62.4,55.9,29.93,NW,315,0.0,0.0,79,0.00,,,0.00,0.0,WUHU216DAVISWMX,2013-10-03 02:05:00,
2013-10-02 22:10:00,62.0,55.8,29.93,NW,315,0.0,0.0,80,0.00,,,0.00,0.0,WUHU216DAVISWMX,2013-10-03 02:10:00,
2013-10-02 22:15:00,61.7,55.5,29.93,NW,315,0.0,0.0,80,0.00,,,0.00,0.0,WUHU216DAVISWMX,2013-10-03 02:15:00,
2013-10-02 22:20:00,61.4,55.2,29.93,NW,315,0.0,0.0,80,0.00,,,0.00,0.0,WUHU216DAVISWMX,2013-10-03 02:20:00,
2013-10-02 22:25:00,61.4,55.2,29.93,NW,315,0.0,1.0,80,0.00,,,0.00,0.0,WUHU216DAVISWMX,2013-10-03 02:25:00,
2013-10-02 22:30:00,61.5,55.3,29.93,NW,315,0.0,1.0,80,0.00,,,0.00,0.0,WUHU216DAVISWMX,2013-10-03 02:30:00,
2013-10-02 22:35:00,61.6,55.4,29.93,NW,315,0.0,0.0,80,0.00,,,0.00,0.0,WUHU216DAVISWMX,2013-10-03 02:35:00,
2013-10-02 22:40:00,61.6,55.4,29.94,NW,315,0.0,0.0,80,0.00,,,0.00,0.0,WUHU216DAVISWMX,2013-10-03 02:40:00,
2013-10-02 22:45:00,61.5,55.3,29.94,NW,315,0.0,0.0,80,0.00,,,0.00,0.0,WUHU216DAVISWMX,2013-10-03 02:45:00,
2013-10-02 22:50:00,61.2,55.0,29.95,NW,315,0.0,0.0,80,0.00,,,0.00,0.0,WUHU216DAVISWMX,2013-10-03 02:50:00,
2013-10-02 22:55:00,60.9,55.1,29.94,NW,315,0.0,0.0,81,0.00,,,0.00,0.0,WUHU216DAVISWMX,2013-10-03 02:55:00,
2013-10-02 23:00:00,60.6,54.1,29.95,NW,315,0.0,0.0,79,0.00,,,0.00,0.0,WUHU216DAVISWMX,2013-10-03 03:00:00,
2013-10-02 23:05:00,60.2,54.4,29.95,NW,315,0.0,0.0,81,0.00,,,0.00,0.0,WUHU216DAVISWMX,2013-10-03 03:05:00,
2013-10-02 23:10:00,59.9,54.4,29.94,NW,315,0.0,0.0,82,0.00,,,0.00,0.0,WUHU216DAVISWMX,2013-10-03 03:10:00,
2013-10-02 23:15:00,59.6,55.1,29.95,NW,315,0.0,0.0,85,0.00,,,0.00,0.0,WUHU216DAVISWMX,2013-10-03 03:15:00,
2013-10-02 23:20:00,59.3,54.5,29.95,NW,315,0.0,0.0,84,0.00,,,0.00,0.0,WUHU216DAVISWMX,2013-10-03 03:20:00,
2013-10-02 23:25:00,59.0,53.9,29.95,NW,315,0.0,0.0,83,0.00,,,0.00,0.0,WUHU216DAVISWMX,2013-10-03 03:25:00,
2013-10-02 23:30:00,58.7,54.5,29.95,NW,315,0.0,0.0,86,0.00,,,0.00,0.0,WUHU216DAVISWMX,2013-10-03 03:30:00,
2013-10-02 23:35:00,58.4,53.9,29.95,NW,315,0.0,0.0,85,0.00,,,0.00,0.0,WUHU216DAVISWMX,2013-10-03 03:35:00,
2013-10-02 23:40:00,58.2,53.4,29.96,NW,315,0.0,0.0,84,0.00,,,0.00,0.0,WUHU216DAVISWMX,2013-10-03 03:40:00,
2013-10-02 23:45:00,58.0,53.2,29.96,NW,315,0.0,0.0,84,0.00,,,0.00,0.0,WUHU216DAVISWMX,2013-10-03 03:45:00,
2013-10-02 23:50:00,57.7,53.2,29.96,NW,315,0.0,0.0,85,0.00,,,0.00,0.0,WUHU216DAVISWMX,2013-10-03 03:50:00,
2013-10-02 23:55:00,57.5,53.0,29.96,NW,315,0.0,0.0,85,0.00,,,0.00,0.0,WUHU216DAVISWMX,2013-10-03 03:55:00,